Time,TemperatureF,DewpointF,PressureIn,WindDirection,WindDirectionDegrees,WindSpeedMPH,WindSpeedGustMPH,Humidity,HourlyPrecipIn,Conditions,Clouds,dailyrainin,SoftwareType,DateUTC
2013-06-20 00:09:00,58.4,56.0,30.12,NNW,347,0.0,0.0,93,0.00,,,0.00,weatherlink.com 1.10,2013-06-20 04:09:00,
2013-06-20 00:24:00,58.0,56.0,30.12,NNW,347,0.0,0.0,93,0.00,,,0.00,weatherlink.com 1.10,2013-06-20 04:24:00,
2013-06-20 00:39:00,57.6,56.0,30.12,NNW,347,0.0,0.0,93,0.00,,,0.00,weatherlink.com 1.10,2013-06-20 04:39:00,
2013-06-20 00:56:00,57.3,56.0,30.12,NNW,347,0.0,0.0,94,0.00,,,0.00,weatherlink.com 1.10,2013-06-20 04:56:00,
2013-06-20 01:09:00,57.2,56.0,30.12,NNW,347,0.0,0.0,94,0.00,,,0.00,weatherlink.com 1.10,2013-06-20 05:09:00,
2013-06-20 01:24:00,56.9,55.0,30.12,NNW,347,0.0,1.0,94,0.00,,,0.00,weatherlink.com 1.10,2013-06-20 05:24:00,
2013-06-20 01:39:00,56.9,55.0,30.12,NNW,347,0.0,0.0,94,0.00,,,0.00,weatherlink.com 1.10,2013-06-20 05:39:00,
2013-06-20 01:54:00,56.8,55.0,30.12,NNW,347,0.0,0.0,94,0.00,,,0.00,weatherlink.com 1.10,2013-06-20 05:54:00,
2013-06-20 02:09:00,56.4,55.0,30.11,NNW,347,0.0,0.0,94,0.00,,,0.00,weatherlink.com 1.10,2013-06-20 06:09:00,
2013-06-20 02:24:00,56.0,54.0,30.11,NNW,347,0.0,1.0,94,0.00,,,0.00,weatherlink.com 1.10,2013-06-20 06:24:00,
2013-06-20 02:39:00,55.9,54.0,30.11,NNW,347,0.0,0.0,94,0.00,,,0.00,weatherlink.com 1.10,2013-06-20 06:39:00,
2013-06-20 02:54:00,55.9,54.0,30.11,NNW,347,0.0,1.0,94,0.00,,,0.00,weatherlink.com 1.10,2013-06-20 06:54:00,
2013-06-20 03:09:00,55.9,55.0,30.11,NNW,347,0.0,0.0,95,0.00,,,0.00,weatherlink.com 1.10,2013-06-20 07:09:00,
2013-06-20 03:24:00,55.8,54.0,30.11,NNW,347,0.0,0.0,95,0.00,,,0.00,weatherlink.com 1.10,2013-06-20 07:24:00,
2013-06-20 03:39:00,55.6,54.0,30.12,NNW,347,0.0,1.0,95,0.00,,,0.00,weatherlink.com 1.10,2013-06-20 07:39:00,
2013-06-20 03:54:00,55.6,54.0,30.12,NNW,347,0.0,0.0,95,0.00,,,0.00,weatherlink.com 1.10,2013-06-20 07:54:00,
2013-06-20 04:09:00,55.6,54.0,30.12,NNW,347,0.0,1.0,95,0.00,,,0.00,weatherlink.com 1.10,2013-06-20 08:09:00,
2013-06-20 04:24:00,55.7,54.0,30.12,NNW,347,0.0,0.0,95,0.00,,,0.00,weatherlink.com 1.10,2013-06-20 08:24:00,
2013-06-20 04:39:00,55.6,54.0,30.13,NNW,347,0.0,0.0,95,0.00,,,0.00,weatherlink.com 1.10,2013-06-20 08:39:00,
2013-06-20 04:54:00,55.9,55.0,30.14,NNW,347,0.0,0.0,95,0.00,,,0.00,weatherlink.com 1.10,2013-06-20 08:54:00,
2013-06-20 05:09:00,56.0,55.0,30.14,NNW,347,0.0,0.0,95,0.00,,,0.00,weatherlink.com 1.10,2013-06-20 09:09:00,
2013-06-20 05:24:00,56.2,55.0,30.14,NNW,347,0.0,1.0,95,0.00,,,0.00,weatherlink.com 1.10,2013-06-20 09:24:00,
2013-06-20 05:39:00,56.2,55.0,30.15,NNW,347,0.0,0.0,95,0.00,,,0.00,weatherlink.com 1.10,2013-06-20 09:39:00,
2013-06-20 05:54:00,56.1,55.0,30.15,NNW,347,0.0,0.0,95,0.00,,,0.00,weatherlink.com 1.10,2013-06-20 09:54:00,
2013-06-20 06:09:00,56.2,55.0,30.15,NNW,347,0.0,0.0,95,0.00,,,0.00,weatherlink.com 1.10,2013-06-20 10:09:00,
2013-06-20 06:24:00,56.2,55.0,30.16,NNW,347,0.0,1.0,95,0.00,,,0.00,weatherlink.com 1.10,2013-06-20 10:24:00,
2013-06-20 06:39:00,56.5,55.0,30.16,NNW,347,0.0,1.0,96,0.00,,,0.00,weatherlink.com 1.10,2013-06-20 10:39:00,
2013-06-20 06:54:00,56.7,55.0,30.17,NNW,347,0.0,1.0,95,0.00,,,0.00,weatherlink.com 1.10,2013-06-20 10:54:00,
2013-06-20 07:09:00,57.3,56.0,30.17,NNW,347,0.0,0.0,96,0.00,,,0.00,weatherlink.com 1.10,2013-06-20 11:09:00,
2013-06-20 07:24:00,57.6,57.0,30.17,NNW,347,0.0,0.0,96,0.00,,,0.00,weatherlink.com 1.10,2013-06-20 11:24:00,
2013-06-20 07:39:00,57.9,57.0,30.18,NNW,347,0.0,0.0,96,0.00,,,0.00,weatherlink.com 1.10,2013-06-20 11:39:00,
2013-06-20 07:54:00,58.6,58.0,30.18,NNW,347,0.0,1.0,96,0.00,,,0.00,weatherlink.com 1.10,2013-06-20 11:54:00,
2013-06-20 08:09:00,60.6,60.0,30.18,NNW,347,0.0,0.0,96,0.00,,,0.00,weatherlink.com 1.10,2013-06-20 12:09:00,
2013-06-20 08:24:00,62.5,61.0,30.19,NNW,347,0.0,2.0,96,0.00,,,0.00,weatherlink.com 1.10,2013-06-20 12:24:00,
2013-06-20 08:39:00,64.5,63.0,30.19,NNW,347,0.0,2.0,94,0.00,,,0.00,weatherlink.com 1.10,2013-06-20 12:39:00,
2013-06-20 08:55:00,68.1,64.0,30.19,WNW,290,0.0,3.0,87,0.00,,,0.00,weatherlink.com 1.10,2013-06-20 12:55:00,
2013-06-20 09:10:00,70.1,64.0,30.19,NE,34,0.0,2.0,80,0.00,,,0.00,weatherlink.com 1.10,2013-06-20 13:10:00,
2013-06-20 09:25:00,70.2,63.0,30.19,NE,46,0.0,2.0,79,0.00,,,0.00,weatherlink.com 1.10,2013-06-20 13:25:00,
2013-06-20 10:15:00,74.7,65.0,30.19,ENE,63,0.0,4.0,72,0.00,,,0.00,weatherlink.com 1.10,2013-06-20 14:15:00,
2013-06-20 10:25:00,74.8,63.0,30.18,ENE,63,0.0,5.0,67,0.00,,,0.00,weatherlink.com 1.10,2013-06-20 14:25:00,
2013-06-20 10:40:00,75.4,64.0,30.18,ENE,59,0.0,3.0,68,0.00,,,0.00,weatherlink.com 1.10,2013-06-20 14:40:00,
2013-06-20 10:55:00,74.9,61.0,30.18,WSW,258,2.0,6.0,63,0.00,,,0.00,weatherlink.com 1.10,2013-06-20 14:55:00,
2013-06-20 11:10:00,75.9,62.0,30.18,West,265,6.0,8.0,62,0.00,,,0.00,weatherlink.com 1.10,2013-06-20 15:10:00,
2013-06-20 11:25:00,76.8,62.0,30.18,SSW,212,1.0,3.0,61,0.00,,,0.00,weatherlink.com 1.10,2013-06-20 15:25:00,
2013-06-20 11:40:00,77.5,63.0,30.19,West,276,1.0,6.0,61,0.00,,,0.00,weatherlink.com 1.10,2013-06-20 15:40:00,
2013-06-20 11:55:00,77.4,62.0,30.19,West,269,1.0,3.0,60,0.00,,,0.00,weatherlink.com 1.10,2013-06-20 15:55:00,
2013-06-20 12:10:00,76.7,62.0,30.18,SW,223,1.0,4.0,61,0.00,,,0.00,weatherlink.com 1.10,2013-06-20 16:10:00,
2013-06-20 12:25:00,76.1,63.0,30.18,WNW,284,0.0,7.0,63,0.00,,,0.00,weatherlink.com 1.10,2013-06-20 16:25:00,
2013-06-20 12:40:00,77.6,63.0,30.18,ENE,71,0.0,3.0,61,0.00,,,0.00,weatherlink.com 1.10,2013-06-20 16:40:00,
2013-06-20 12:55:00,77.8,64.0,30.18,North,355,0.0,4.0,63,0.00,,,0.00,weatherlink.com 1.10,2013-06-20 16:55:00,
2013-06-20 13:10:00,77.0,64.0,30.18,WNW,295,0.0,5.0,65,0.00,,,0.00,weatherlink.com 1.10,2013-06-20 17:10:00,
2013-06-20 13:25:00,77.9,64.0,30.18,WSW,243,1.0,5.0,62,0.00,,,0.00,weatherlink.com 1.10,2013-06-20 17:25:00,
2013-06-20 13:40:00,78.3,62.0,30.18,ESE,105,2.0,7.0,58,0.00,,,0.00,weatherlink.com 1.10,2013-06-20 17:40:00,
2013-06-20 13:55:00,77.0,62.0,30.18,WSW,240,4.0,5.0,60,0.00,,,0.00,weatherlink.com 1.10,2013-06-20 17:55:00,
2013-06-20 14:10:00,77.1,64.0,30.18,NE,46,0.0,4.0,65,0.00,,,0.00,weatherlink.com 1.10,2013-06-20 18:10:00,
2013-06-20 14:25:00,76.6,63.0,30.18,SW,218,0.0,7.0,63,0.00,,,0.00,weatherlink.com 1.10,2013-06-20 18:25:00,
2013-06-20 14:40:00,78.0,65.0,30.18,SW,219,4.0,6.0,64,0.00,,,0.00,weatherlink.com 1.10,2013-06-20 18:40:00,
2013-06-20 14:55:00,78.1,64.0,30.18,NNW,339,0.0,6.0,63,0.00,,,0.00,weatherlink.com 1.10,2013-06-20 18:55:00,
2013-06-20 15:10:00,78.6,65.0,30.17,SW,219,0.0,4.0,63,0.00,,,0.00,weatherlink.com 1.10,2013-06-20 19:10:00,
2013-06-20 15:25:00,79.0,64.0,30.16,SW,216,1.0,4.0,61,0.00,,,0.00,weatherlink.com 1.10,2013-06-20 19:25:00,
2013-06-20 15:42:00,78.1,63.0,30.16,South,183,0.0,4.0,60,0.00,,,0.00,weatherlink.com 1.10,2013-06-20 19:42:00,
2013-06-20 15:55:00,78.4,64.0,30.15,NNE,32,0.0,5.0,61,0.00,,,0.00,weatherlink.com 1.10,2013-06-20 19:55:00,
2013-06-20 16:10:00,77.3,62.0,30.16,WSW,243,3.0,6.0,60,0.00,,,0.00,weatherlink.com 1.10,2013-06-20 20:10:00,
2013-06-20 16:25:00,75.1,62.0,30.16,WSW,256,1.0,5.0,64,0.00,,,0.00,weatherlink.com 1.10,2013-06-20 20:25:00,
2013-06-20 16:40:00,75.6,64.0,30.16,East,82,0.0,4.0,67,0.00,,,0.00,weatherlink.com 1.10,2013-06-20 20:40:00,
2013-06-20 16:55:00,75.4,65.0,30.16,ESE,123,1.0,2.0,69,0.00,,,0.00,weatherlink.com 1.10,2013-06-20 20:55:00,
2013-06-20 17:10:00,75.3,63.0,30.15,SW,215,1.0,5.0,66,0.00,,,0.00,weatherlink.com 1.10,2013-06-20 21:10:00,
2013-06-20 17:25:00,74.8,64.0,30.14,West,267,5.0,6.0,68,0.00,,,0.00,weatherlink.com 1.10,2013-06-20 21:25:00,
2013-06-20 17:40:00,74.2,62.0,30.14,WNW,292,1.0,6.0,65,0.00,,,0.00,weatherlink.com 1.10,2013-06-20 21:40:00,
2013-06-20 17:55:00,74.3,63.0,30.15,WSW,242,0.0,5.0,68,0.00,,,0.00,weatherlink.com 1.10,2013-06-20 21:55:00,
2013-06-20 18:10:00,74.6,62.0,30.15,SW,223,2.0,5.0,65,0.00,,,0.00,weatherlink.com 1.10,2013-06-20 22:10:00,
2013-06-20 18:25:00,74.9,63.0,30.15,ENE,72,1.0,4.0,66,0.00,,,0.00,weatherlink.com 1.10,2013-06-20 22:25:00,
2013-06-20 18:40:00,75.1,62.0,30.15,WSW,242,0.0,3.0,65,0.00,,,0.00,weatherlink.com 1.10,2013-06-20 22:40:00,
2013-06-20 18:55:00,73.6,62.0,30.16,SW,235,4.0,4.0,67,0.00,,,0.00,weatherlink.com 1.10,2013-06-20 22:55:00,
2013-06-20 19:10:00,72.6,61.0,30.15,WSW,254,3.0,3.0,68,0.00,,,0.00,weatherlink.com 1.10,2013-06-20 23:10:00,
2013-06-20 19:27:00,72.0,62.0,30.16,SW,227,0.0,4.0,71,0.00,,,0.00,weatherlink.com 1.10,2013-06-20 23:27:00,
2013-06-20 19:40:00,71.5,63.0,30.16,SW,227,1.0,1.0,74,0.00,,,0.00,weatherlink.com 1.10,2013-06-20 23:40:00,
2013-06-20 19:55:00,71.2,62.0,30.16,SW,227,0.0,3.0,72,0.00,,,0.00,weatherlink.com 1.10,2013-06-20 23:55:00,
2013-06-20 20:10:00,70.9,63.0,30.16,SW,227,0.0,2.0,75,0.00,,,0.00,weatherlink.com 1.10,2013-06-21 00:10:00,
2013-06-20 20:25:00,70.3,62.0,30.16,SW,227,0.0,1.0,75,0.00,,,0.00,weatherlink.com 1.10,2013-06-21 00:25:00,
2013-06-20 20:40:00,68.8,62.0,30.16,West,267,0.0,1.0,79,0.00,,,0.00,weatherlink.com 1.10,2013-06-21 00:40:00,
2013-06-20 20:55:00,67.4,61.0,30.17,West,267,0.0,0.0,81,0.00,,,0.00,weatherlink.com 1.10,2013-06-21 00:55:00,
2013-06-20 21:10:00,66.4,61.0,30.18,West,267,0.0,1.0,83,0.00,,,0.00,weatherlink.com 1.10,2013-06-21 01:10:00,
2013-06-20 21:25:00,65.4,61.0,30.18,West,267,0.0,0.0,86,0.00,,,0.00,weatherlink.com 1.10,2013-06-21 01:25:00,
2013-06-20 21:40:00,64.9,61.0,30.18,West,267,0.0,1.0,87,0.00,,,0.00,weatherlink.com 1.10,2013-06-21 01:40:00,
2013-06-20 21:55:00,64.4,61.0,30.19,West,267,0.0,1.0,88,0.00,,,0.00,weatherlink.com 1.10,2013-06-21 01:55:00,
2013-06-20 22:10:00,63.9,61.0,30.19,West,267,0.0,0.0,89,0.00,,,0.00,weatherlink.com 1.10,2013-06-21 02:10:00,
2013-06-20 22:25:00,63.4,60.0,30.20,West,267,0.0,0.0,89,0.00,,,0.00,weatherlink.com 1.10,2013-06-21 02:25:00,
2013-06-20 22:40:00,62.9,60.0,30.20,West,267,0.0,0.0,90,0.00,,,0.00,weatherlink.com 1.10,2013-06-21 02:40:00,
2013-06-20 22:55:00,62.5,60.0,30.20,West,267,0.0,0.0,91,0.00,,,0.00,weatherlink.com 1.10,2013-06-21 02:55:00,
2013-06-20 23:11:00,62.1,60.0,30.20,West,267,0.0,0.0,91,0.00,,,0.00,weatherlink.com 1.10,2013-06-21 03:11:00,
2013-06-20 23:25:00,61.9,60.0,30.20,West,267,0.0,2.0,92,0.00,,,0.00,weatherlink.com 1.10,2013-06-21 03:25:00,
2013-06-20 23:40:00,61.6,59.0,30.21,West,267,0.0,1.0,92,0.00,,,0.00,weatherlink.com 1.10,2013-06-21 03:40:00,
2013-06-20 23:55:00,61.4,59.0,30.21,West,267,0.0,0.0,92,0.00,,,0.00,weatherlink.com 1.10,2013-06-21 03:55:00,